Flag for U.S.A. Weather past 2 weeks in St. Petersburg, Florida, U.S.A.

Now
84 °F

Light rain. Scattered clouds.


Feels Like: 94 °F
Forecast: 79 / 87 °F
Wind: 5 mph from Northwest

Location: Whitted Airport

Current Time: Aug 28, 2015 at 3:47:41 PM

Latest Report: Aug 28, 2015 at 2:53 PM


Visibility: 10 mi

Pressure: 29.99 "Hg

Humidity: 80%

Dew point: 77 °F

Location of St. PetersburgLocation

Historic Weather in St. Petersburg — Graph

°F

St. Petersburg temperature yesterday

Maximum temperature yesterday: 85 °F (at 6:53 PM)
Minimum temperature yesterday: 77 °F (at 8:53 AM)
Average temperature yesterday: 81 °F

Past Weeks' High & Low Weather Summary

 TemperatureHumidityPressure
High94 °F (Aug 22, 3:53 PM)88% (Aug 13, 4:53 PM)30.09 "Hg (Aug 13, 4:53 PM)
Low77 °F (Aug 15, 10:53 PM)50% (Aug 14, 4:53 PM)29.85 "Hg (Aug 24, 7:53 PM)
Average84 °F73%29.97 "Hg
* Reported Aug 13 2:53 PM — Aug 28 2:53 PM, St. Petersburg, Weather by CustomWeather, © 2015

Note: Actual official high and low records may vary slightly from our data, if they occured in-between our weather recording intervals... More about our weather records

Advertising

St. Petersburg weather history for previous 24 hours

 ConditionsComfort  
Time TempWeatherWind HumidityBarometerVisibility
2:53 PM
Fri, Aug 28
84 °FLight rain. Scattered clouds.5 mph80%29.99 "Hg10 mi
1:53 PM85 °FSunny.6 mph75%29.99 "Hg10 mi
12:53 PM85 °FLight rain. Partly sunny.6 mph72%30.01 "Hg10 mi
11:53 AM85 °FSunny.8 mph72%30.02 "Hg10 mi
10:53 AM86 °FSunny.6 mph72%30.01 "Hg10 mi
9:53 AM84 °FPartly sunny.6 mph77%30.00 "Hg10 mi
8:53 AM82 °FSunny.9 mph79%29.98 "Hg10 mi
7:53 AM80 °FClear.10 mph85%29.96 "Hg10 mi
6:53 AM79 °FClear.10 mph84%29.95 "Hg10 mi
5:53 AM79 °FClear.9 mph82%29.95 "Hg10 mi
4:53 AM79 °FClear.10 mph82%29.93 "Hg10 mi
3:53 AM79 °FClear.8 mph82%29.93 "Hg10 mi
2:53 AM80 °FClear.9 mph79%29.94 "Hg10 mi
1:53 AM81 °FClear.15 mph77%29.96 "Hg10 mi
12:53 AM81 °FClear.10 mph79%29.98 "Hg10 mi
11:53 PM
Thu, Aug 27
82 °FClear.10 mph79%29.97 "Hg10 mi
10:53 PM82 °FClear.9 mph74%29.95 "Hg10 mi
9:53 PM83 °FClear.13 mph77%29.93 "Hg10 mi
8:53 PM84 °FPassing clouds.12 mph72%29.92 "Hg10 mi
7:53 PM85 °FPassing clouds.7 mph68%29.91 "Hg10 mi
6:53 PM85 °FSunny.No wind70%29.90 "Hg10 mi
5:53 PM84 °FSunny.6 mph72%29.89 "Hg10 mi
4:53 PM84 °FSunny.6 mph72%29.89 "Hg10 mi
3:53 PM84 °FSunny.6 mph74%29.90 "Hg10 mi
Weather by CustomWeather, © 2015

See weather overviewHow to use our weather pages